"datetime","temp","dp","rain_mm","uv","solar","mb","wind_mph","gust_mph","windchill","rh"
"2023-07-27 00:00:00",15.8,14.8,0.0,0.0,0,1004.9,1,2,"",94
"2023-07-27 00:01:00",15.8,14.8,0.0,0.0,0,1005.0,1,3,"",94
"2023-07-27 00:02:00",15.9,14.9,0.0,0.0,0,1005.0,1,2,"",94
"2023-07-27 00:03:00",15.8,14.8,0.0,0.0,0,1005.0,1,3,"",94
"2023-07-27 00:04:00",15.8,14.8,0.0,0.0,0,1004.9,2,4,"",94
"2023-07-27 00:05:00",15.8,14.8,0.0,0.0,0,1004.9,1,2,"",94
"2023-07-27 00:06:00",15.8,14.8,0.2,0.0,0,1004.9,1,2,"",94
"2023-07-27 00:07:00",15.8,14.8,0.2,0.0,0,1004.9,2,4,"",94
"2023-07-27 00:08:00",15.8,14.8,0.2,0.0,0,1004.9,2,3,"",94
"2023-07-27 00:09:00",15.8,14.8,0.2,0.0,0,1004.9,2,4,"",94
"2023-07-27 00:10:00",15.8,14.8,0.2,0.0,0,1004.9,2,3,"",94
"2023-07-27 00:11:00",15.8,14.8,0.2,0.0,0,1004.8,2,4,"",94
"2023-07-27 00:12:00",15.8,14.8,0.2,0.0,0,1004.8,1,4,"",94
"2023-07-27 00:13:00",15.8,14.8,0.2,0.0,0,1004.7,2,4,"",94
"2023-07-27 00:14:00",15.8,14.8,0.2,0.0,0,1004.8,1,3,"",94
"2023-07-27 00:15:00",15.8,14.8,0.2,0.0,0,1004.7,1,2,"",94
"2023-07-27 00:16:00",15.8,14.8,0.2,0.0,0,1004.7,2,2,"",94
"2023-07-27 00:17:00",15.8,14.8,0.2,0.0,0,1004.8,2,3,"",94
"2023-07-27 00:18:00",15.8,14.8,0.2,0.0,0,1004.7,1,2,"",94
"2023-07-27 00:19:00",15.9,14.9,0.2,0.0,0,1004.7,1,2,"",94
"2023-07-27 00:20:00",15.9,14.9,0.4,0.0,0,1004.7,2,5,"",94
"2023-07-27 00:21:00",15.9,14.9,0.4,0.0,0,1004.7,2,5,"",94
"2023-07-27 00:22:00",15.9,14.9,0.4,0.0,0,1004.6,1,3,"",94
"2023-07-27 00:23:00",15.9,14.9,0.4,0.0,0,1004.6,2,5,"",94
"2023-07-27 00:24:00",15.9,15.1,0.6,0.0,0,1004.6,1,3,"",95
"2023-07-27 00:25:00",15.9,15.1,0.6,0.0,0,1004.6,2,3,"",95
"2023-07-27 00:26:00",15.9,14.9,0.6,0.0,0,1004.6,3,6,"",94
"2023-07-27 00:27:00",15.9,15.1,0.6,0.0,0,1004.5,2,4,"",95
"2023-07-27 00:28:00",15.9,14.9,0.6,0.0,0,1004.5,1,3,"",94
"2023-07-27 00:29:00",15.9,14.9,0.8,0.0,0,1004.6,1,3,"",94
"2023-07-27 00:30:00",15.9,15.1,0.8,0.0,0,1004.5,1,3,"",95
"2023-07-27 00:31:00",15.9,15.1,1.0,0.0,0,1004.5,1,3,"",95
"2023-07-27 00:32:00",16.0,15.2,1.0,0.0,0,1004.5,1,3,"",95
"2023-07-27 00:33:00",16.0,15.2,1.0,0.0,0,1004.4,3,8,"",95
"2023-07-27 00:34:00",16.0,15.2,1.2,0.0,0,1004.3,3,5,"",95
"2023-07-27 00:35:00",15.9,15.1,1.2,0.0,0,1004.3,2,3,"",95
"2023-07-27 00:36:00",15.9,15.1,1.4,0.0,0,1004.3,2,3,"",95
"2023-07-27 00:37:00",16.0,15.2,1.4,0.0,0,1004.3,2,4,"",95
"2023-07-27 00:38:00",16.0,15.0,1.4,0.0,0,1004.3,2,5,"",94
"2023-07-27 00:39:00",16.0,15.2,1.6,0.0,0,1004.2,2,5,"",95
"2023-07-27 00:40:00",16.0,15.2,1.6,0.0,0,1004.2,2,3,"",95
"2023-07-27 00:41:00",16.0,15.2,1.8,0.0,0,1004.2,1,2,"",95
"2023-07-27 00:42:00",16.0,15.2,1.8,0.0,0,1004.2,2,4,"",95
"2023-07-27 00:43:00",15.9,15.1,1.8,0.0,0,1004.2,1,3,"",95
"2023-07-27 00:44:00",15.9,15.1,2.0,0.0,0,1004.1,2,4,"",95
"2023-07-27 00:45:00",16.0,15.2,2.0,0.0,0,1004.2,2,3,"",95
"2023-07-27 00:46:00",16.0,15.2,2.2,0.0,0,1004.1,2,3,"",95
"2023-07-27 00:47:00",16.0,15.2,2.2,0.0,0,1004.1,2,5,"",95
"2023-07-27 00:48:00",16.1,15.3,2.2,0.0,0,1004.2,2,4,"",95
"2023-07-27 00:49:00",16.0,15.2,2.2,0.0,0,1004.2,2,3,"",95
"2023-07-27 00:50:00",16.0,15.2,2.2,0.0,0,1004.1,3,7,"",95
"2023-07-27 00:51:00",16.0,15.2,2.2,0.0,0,1004.2,4,9,"",95
"2023-07-27 00:52:00",16.0,15.2,2.2,0.0,0,1004.1,2,4,"",95
"2023-07-27 00:53:00",16.0,15.2,2.2,0.0,0,1004.2,2,3,"",95
"2023-07-27 00:54:00",16.0,15.2,2.2,0.0,0,1004.2,2,4,"",95
"2023-07-27 00:55:00",16.0,15.2,2.4,0.0,0,1004.1,2,3,"",95
"2023-07-27 00:56:00",16.0,15.2,2.4,0.0,0,1004.1,2,3,"",95
"2023-07-27 00:57:00",16.0,15.2,2.4,0.0,0,1004.1,3,6,"",95
"2023-07-27 00:58:00",16.0,15.2,2.4,0.0,0,1004.1,3,4,"",95
"2023-07-27 00:59:00",16.0,15.2,2.4,0.0,0,1004.1,3,6,"",95
"2023-07-27 01:00:00",16.1,15.3,2.4,0.0,0,1004.1,3,8,"",95
"2023-07-27 01:01:00",16.1,15.3,2.4,0.0,0,1004.1,3,8,"",95
"2023-07-27 01:02:00",16.1,15.3,2.4,0.0,0,1004.0,2,5,"",95
"2023-07-27 01:03:00",16.0,15.2,2.4,0.0,0,1004.0,3,6,"",95
"2023-07-27 01:04:00",16.1,15.3,2.4,0.0,0,1004.1,2,3,"",95
"2023-07-27 01:05:00",16.1,15.3,2.4,0.0,0,1004.0,2,4,"",95
"2023-07-27 01:06:00",16.1,15.3,2.4,0.0,0,1004.1,2,3,"",95
"2023-07-27 01:07:00",16.1,15.3,2.4,0.0,0,1004.1,1,3,"",95
"2023-07-27 01:08:00",16.1,15.3,2.4,0.0,0,1004.1,2,5,"",95
"2023-07-27 01:09:00",16.1,15.3,2.6,0.0,0,1004.1,1,2,"",95
"2023-07-27 01:10:00",16.1,15.3,2.6,0.0,0,1004.1,1,2,"",95
"2023-07-27 01:11:00",16.1,15.3,2.6,0.0,0,1004.1,2,6,"",95
"2023-07-27 01:12:00",16.1,15.3,2.6,0.0,0,1004.1,2,3,"",95
"2023-07-27 01:13:00",16.1,15.3,2.6,0.0,0,1004.0,2,4,"",95
"2023-07-27 01:14:00",16.1,15.3,2.6,0.0,0,1004.0,1,3,"",95
"2023-07-27 01:15:00",16.1,15.3,2.6,0.0,0,1004.0,2,3,"",95
"2023-07-27 01:16:00",16.1,15.3,2.6,0.0,0,1004.0,2,5,"",95
"2023-07-27 01:17:00",16.1,15.3,2.6,0.0,0,1004.0,2,5,"",95
"2023-07-27 01:18:00",16.1,15.3,2.6,0.0,0,1004.0,1,5,"",95
"2023-07-27 01:19:00",16.1,15.3,2.6,0.0,0,1003.9,2,5,"",95
"2023-07-27 01:20:00",16.1,15.3,2.6,0.0,0,1003.9,2,4,"",95
"2023-07-27 01:21:00",16.1,15.3,2.6,0.0,0,1003.9,2,4,"",95
"2023-07-27 01:22:00",16.1,15.3,2.6,0.0,0,1003.9,3,6,"",95
"2023-07-27 01:23:00",16.1,15.3,2.6,0.0,0,1003.8,3,3,"",95
"2023-07-27 01:24:00",16.1,15.3,2.6,0.0,0,1003.8,1,2,"",95
"2023-07-27 01:25:00",16.1,15.3,2.6,0.0,0,1003.8,1,3,"",95
"2023-07-27 01:26:00",16.1,15.3,2.6,0.0,0,1003.8,2,4,"",95
"2023-07-27 01:27:00",16.1,15.3,2.6,0.0,0,1003.7,2,4,"",95
"2023-07-27 01:28:00",16.1,15.3,2.6,0.0,0,1003.7,2,6,"",95
"2023-07-27 01:29:00",16.1,15.3,2.6,0.0,0,1003.7,2,5,"",95
"2023-07-27 01:30:00",16.1,15.3,2.8,0.0,0,1003.6,1,3,"",95
"2023-07-27 01:31:00",16.1,15.3,2.8,0.0,0,1003.6,1,2,"",95
"2023-07-27 01:32:00",16.1,15.3,2.8,0.0,0,1003.6,2,3,"",95
"2023-07-27 01:33:00",16.1,15.3,2.8,0.0,0,1003.5,1,2,"",95
"2023-07-27 01:34:00",16.1,15.3,2.8,0.0,0,1003.6,1,2,"",95
"2023-07-27 01:35:00",16.1,15.3,2.8,0.0,0,1003.5,2,4,"",95
"2023-07-27 01:36:00",16.1,15.3,2.8,0.0,0,1003.5,2,4,"",95
"2023-07-27 01:37:00",16.1,15.3,2.8,0.0,0,1003.6,1,3,"",95
"2023-07-27 01:38:00",16.1,15.3,2.8,0.0,0,1003.6,3,7,"",95
"2023-07-27 01:39:00",16.1,15.3,2.8,0.0,0,1003.6,1,3,"",95
"2023-07-27 01:40:00",16.1,15.3,2.8,0.0,0,1003.6,1,2,"",95
"2023-07-27 01:41:00",16.1,15.3,2.8,0.0,0,1003.6,1,2,"",95
"2023-07-27 01:42:00",16.1,15.3,2.8,0.0,0,1003.7,1,2,"",95
"2023-07-27 01:43:00",16.1,15.3,2.8,0.0,0,1003.7,1,2,"",95
"2023-07-27 01:44:00",16.1,15.3,2.8,0.0,0,1003.7,2,5,"",95
"2023-07-27 01:45:00",16.1,15.3,2.8,0.0,0,1003.7,1,3,"",95
"2023-07-27 01:46:00",16.1,15.3,2.8,0.0,0,1003.6,2,4,"",95
"2023-07-27 01:47:00",16.1,15.3,2.8,0.0,0,1003.6,2,3,"",95
"2023-07-27 01:48:00",16.1,15.3,2.8,0.0,0,1003.6,1,3,"",95
"2023-07-27 01:49:00",16.1,15.3,2.8,0.0,0,1003.6,2,3,"",95
"2023-07-27 01:50:00",16.1,15.3,2.8,0.0,0,1003.6,4,6,"",95
"2023-07-27 01:51:00",16.1,15.3,2.8,0.0,0,1003.6,1,3,"",95
"2023-07-27 01:52:00",16.1,15.3,2.8,0.0,0,1003.6,2,3,"",95
"2023-07-27 01:53:00",16.1,15.3,2.8,0.0,0,1003.6,2,5,"",95
"2023-07-27 01:54:00",16.1,15.3,2.8,0.0,0,1003.6,2,4,"",95
"2023-07-27 01:55:00",16.1,15.3,2.8,0.0,0,1003.6,2,4,"",95
"2023-07-27 01:56:00",16.1,15.3,2.8,0.0,0,1003.6,2,4,"",95
"2023-07-27 01:57:00",16.1,15.3,2.8,0.0,0,1003.5,3,8,"",95
"2023-07-27 01:58:00",16.1,15.3,2.8,0.0,0,1003.6,2,4,"",95
"2023-07-27 01:59:00",16.1,15.3,2.8,0.0,0,1003.5,2,2,"",95
"2023-07-27 02:00:00",16.1,15.3,2.8,0.0,0,1003.5,1,2,"",95
"2023-07-27 02:01:00",16.1,15.3,2.8,0.0,0,1003.6,2,4,"",95
"2023-07-27 02:02:00",16.1,15.3,2.8,0.0,0,1003.6,2,3,"",95
"2023-07-27 02:03:00",16.1,15.3,2.8,0.0,0,1003.5,2,4,"",95
"2023-07-27 02:04:00",16.1,15.3,2.8,0.0,0,1003.5,2,3,"",95
"2023-07-27 02:05:00",16.1,15.3,2.8,0.0,0,1003.5,2,4,"",95
"2023-07-27 02:06:00",16.1,15.3,2.8,0.0,0,1003.5,1,2,"",95
"2023-07-27 02:07:00",16.1,15.3,2.8,0.0,0,1003.4,1,3,"",95
"2023-07-27 02:08:00",16.1,15.3,2.8,0.0,0,1003.4,2,3,"",95
"2023-07-27 02:09:00",16.1,15.3,2.8,0.0,0,1003.4,2,2,"",95
"2023-07-27 02:10:00",16.1,15.3,3.0,0.0,0,1003.4,2,4,"",95
"2023-07-27 02:11:00",16.1,15.3,3.0,0.0,0,1003.4,1,3,"",95
"2023-07-27 02:12:00",16.1,15.3,3.0,0.0,0,1003.4,2,3,"",95
"2023-07-27 02:13:00",16.1,15.3,3.0,0.0,0,1003.3,2,3,"",95
"2023-07-27 02:14:00",16.1,15.3,3.0,0.0,0,1003.3,2,3,"",95
"2023-07-27 02:15:00",16.1,15.3,3.0,0.0,0,1003.4,2,4,"",95
"2023-07-27 02:16:00",16.1,15.3,3.0,0.0,0,1003.3,1,3,"",95
"2023-07-27 02:17:00",16.1,15.3,3.0,0.0,0,1003.3,1,2,"",95
"2023-07-27 02:18:00",16.1,15.3,3.0,0.0,0,1003.3,1,2,"",95
"2023-07-27 02:19:00",16.1,15.3,3.0,0.0,0,1003.3,1,2,"",95
"2023-07-27 02:20:00",16.1,15.3,3.0,0.0,0,1003.2,1,2,"",95
"2023-07-27 02:21:00",16.1,15.3,3.0,0.0,0,1003.1,1,1,"",95
"2023-07-27 02:22:00",16.1,15.3,3.0,0.0,0,1003.1,1,2,"",95
"2023-07-27 02:23:00",16.1,15.3,3.0,0.0,0,1003.1,2,4,"",95
"2023-07-27 02:24:00",16.1,15.3,3.0,0.0,0,1003.1,2,5,"",95
"2023-07-27 02:25:00",16.1,15.3,3.0,0.0,0,1003.1,1,2,"",95
"2023-07-27 02:26:00",16.1,15.3,3.0,0.0,0,1003.1,4,14,"",95
"2023-07-27 02:27:00",16.1,15.3,3.0,0.0,0,1003.0,3,5,"",95
"2023-07-27 02:28:00",16.2,15.4,3.0,0.0,0,1003.0,1,3,"",95
"2023-07-27 02:29:00",16.2,15.4,3.0,0.0,0,1003.0,2,3,"",95
"2023-07-27 02:30:00",16.2,15.4,3.0,0.0,0,1003.0,1,3,"",95
"2023-07-27 02:31:00",16.1,15.3,3.0,0.0,0,1003.0,2,2,"",95
"2023-07-27 02:32:00",16.1,15.3,3.0,0.0,0,1003.0,3,7,"",95
"2023-07-27 02:33:00",16.1,15.3,3.0,0.0,0,1002.9,2,3,"",95
"2023-07-27 02:34:00",16.2,15.4,3.2,0.0,0,1002.9,1,2,"",95
"2023-07-27 02:35:00",16.2,15.4,3.2,0.0,0,1002.9,1,3,"",95
"2023-07-27 02:36:00",16.2,15.4,3.2,0.0,0,1002.9,1,2,"",95
"2023-07-27 02:37:00",16.2,15.4,3.2,0.0,0,1002.9,1,2,"",95
"2023-07-27 02:38:00",16.2,15.4,3.2,0.0,0,1002.9,1,2,"",95
"2023-07-27 02:39:00",16.2,15.4,3.2,0.0,0,1002.9,1,2,"",95
"2023-07-27 02:40:00",16.2,15.4,3.2,0.0,0,1002.8,2,2,"",95
"2023-07-27 02:41:00",16.2,15.4,3.2,0.0,0,1002.8,1,2,"",95
"2023-07-27 02:42:00",16.2,15.4,3.2,0.0,0,1002.9,2,3,"",95
"2023-07-27 02:43:00",16.2,15.4,3.2,0.0,0,1002.7,2,4,"",95
"2023-07-27 02:44:00",16.2,15.4,3.2,0.0,0,1002.7,2,3,"",95
"2023-07-27 02:45:00",16.2,15.4,3.4,0.0,0,1002.7,1,2,"",95
"2023-07-27 02:46:00",16.2,15.4,3.4,0.0,0,1002.7,3,5,"",95
"2023-07-27 02:47:00",16.2,15.4,3.4,0.0,0,1002.7,2,4,"",95
"2023-07-27 02:48:00",16.2,15.4,3.4,0.0,0,1002.7,3,6,"",95
"2023-07-27 02:49:00",16.2,15.4,3.4,0.0,0,1002.7,1,3,"",95
"2023-07-27 02:50:00",16.2,15.4,3.4,0.0,0,1002.7,2,3,"",95
"2023-07-27 02:51:00",16.2,15.4,3.4,0.0,0,1002.7,2,3,"",95
"2023-07-27 02:52:00",16.2,15.4,3.4,0.0,0,1002.7,1,2,"",95
"2023-07-27 02:53:00",16.2,15.4,3.4,0.0,0,1002.6,2,3,"",95
"2023-07-27 02:54:00",16.2,15.4,3.4,0.0,0,1002.7,1,4,"",95
"2023-07-27 02:55:00",16.3,15.5,3.4,0.0,0,1002.7,2,3,"",95
"2023-07-27 02:56:00",16.3,15.5,3.4,0.0,0,1002.6,2,3,"",95
"2023-07-27 02:57:00",16.3,15.5,3.4,0.0,0,1002.6,2,4,"",95
"2023-07-27 02:58:00",16.3,15.5,3.4,0.0,0,1002.6,1,3,"",95
"2023-07-27 02:59:00",16.3,15.5,3.4,0.0,0,1002.6,1,2,"",95
"2023-07-27 03:00:00",16.3,15.5,3.4,0.0,0,1002.6,2,3,"",95
"2023-07-27 03:01:00",16.2,15.4,3.4,0.0,0,1002.6,2,6,"",95
"2023-07-27 03:02:00",16.3,15.5,3.4,0.0,0,1002.6,2,4,"",95
"2023-07-27 03:03:00",16.3,15.5,3.4,0.0,0,1002.6,2,3,"",95
"2023-07-27 03:04:00",16.3,15.5,3.4,0.0,0,1002.6,1,2,"",95
"2023-07-27 03:05:00",16.3,15.5,3.4,0.0,0,1002.5,1,4,"",95
"2023-07-27 03:06:00",16.3,15.5,3.4,0.0,0,1002.6,2,4,"",95
"2023-07-27 03:07:00",16.3,15.5,3.4,0.0,0,1002.5,1,2,"",95
"2023-07-27 03:08:00",16.3,15.5,3.4,0.0,0,1002.5,2,4,"",95
"2023-07-27 03:09:00",16.3,15.5,3.4,0.0,0,1002.4,1,3,"",95
"2023-07-27 03:10:00",16.3,15.5,3.4,0.0,0,1002.4,1,2,"",95
"2023-07-27 03:11:00",16.2,15.4,3.4,0.0,0,1002.4,3,4,"",95
"2023-07-27 03:12:00",16.3,15.5,3.4,0.0,0,1002.4,1,3,"",95
"2023-07-27 03:13:00",16.3,15.5,3.4,0.0,0,1002.4,2,6,"",95
"2023-07-27 03:14:00",16.3,15.5,3.4,0.0,0,1002.3,2,3,"",95
"2023-07-27 03:15:00",16.3,15.5,3.4,0.0,0,1002.4,2,5,"",95
"2023-07-27 03:16:00",16.3,15.5,3.4,0.0,0,1002.3,1,3,"",95
"2023-07-27 03:17:00",16.3,15.5,3.4,0.0,0,1002.3,1,2,"",95
"2023-07-27 03:18:00",16.3,15.5,3.4,0.0,0,1002.3,1,3,"",95
"2023-07-27 03:19:00",16.3,15.5,3.4,0.0,0,1002.2,2,4,"",95
"2023-07-27 03:20:00",16.3,15.5,3.4,0.0,0,1002.3,1,3,"",95
"2023-07-27 03:21:00",16.3,15.5,3.4,0.0,0,1002.3,2,4,"",95
"2023-07-27 03:22:00",16.3,15.5,3.4,0.0,0,1002.3,3,6,"",95
"2023-07-27 03:23:00",16.3,15.5,3.4,0.0,0,1002.3,2,4,"",95
"2023-07-27 03:24:00",16.3,15.5,3.4,0.0,0,1002.3,1,3,"",95
"2023-07-27 03:25:00",16.3,15.5,3.4,0.0,0,1002.3,2,4,"",95
"2023-07-27 03:26:00",16.4,15.6,3.4,0.0,0,1002.3,2,3,"",95
"2023-07-27 03:27:00",16.4,15.6,3.4,0.0,0,1002.3,2,5,"",95
"2023-07-27 03:28:00",16.3,15.5,3.4,0.0,0,1002.4,1,3,"",95
"2023-07-27 03:29:00",16.4,15.6,3.4,0.0,0,1002.3,2,4,"",95
"2023-07-27 03:30:00",16.4,15.6,3.4,0.0,0,1002.3,1,2,"",95
"2023-07-27 03:31:00",16.4,15.6,3.4,0.0,0,1002.4,2,4,"",95
"2023-07-27 03:32:00",16.4,15.6,3.4,0.0,0,1002.3,2,3,"",95
"2023-07-27 03:33:00",16.4,15.6,3.4,0.0,0,1002.3,3,6,"",95
"2023-07-27 03:34:00",16.4,15.6,3.4,0.0,0,1002.3,2,4,"",95
"2023-07-27 03:35:00",16.4,15.6,3.4,0.0,0,1002.3,1,3,"",95
"2023-07-27 03:36:00",16.4,15.6,3.4,0.0,0,1002.3,2,3,"",95
"2023-07-27 03:37:00",16.4,15.6,3.4,0.0,0,1002.3,2,4,"",95
"2023-07-27 03:38:00",16.4,15.6,3.4,0.0,0,1002.3,2,4,"",95
"2023-07-27 03:39:00",16.4,15.6,3.4,0.0,0,1002.3,0,2,"",95
"2023-07-27 03:40:00",16.4,15.6,3.4,0.0,0,1002.3,1,2,"",95
"2023-07-27 03:41:00",16.4,15.6,3.4,0.0,0,1002.3,1,2,"",95
"2023-07-27 03:42:00",16.4,15.6,3.4,0.0,0,1002.3,1,1,"",95
"2023-07-27 03:43:00",16.4,15.6,3.4,0.0,0,1002.3,1,3,"",95
"2023-07-27 03:44:00",16.4,15.6,3.4,0.0,0,1002.3,3,5,"",95
"2023-07-27 03:45:00",16.4,15.6,3.4,0.0,0,1002.3,1,3,"",95
"2023-07-27 03:46:00",16.4,15.6,3.4,0.0,0,1002.3,1,3,"",95
"2023-07-27 03:47:00",16.4,15.6,3.4,0.0,0,1002.3,2,3,"",95
"2023-07-27 03:48:00",16.4,15.6,3.4,0.0,0,1002.2,2,2,"",95
"2023-07-27 03:49:00",16.4,15.6,3.4,0.0,0,1002.2,2,3,"",95
"2023-07-27 03:50:00",16.4,15.6,3.4,0.0,0,1002.2,1,2,"",95
"2023-07-27 03:51:00",16.4,15.6,3.4,0.0,0,1002.2,2,2,"",95
"2023-07-27 03:52:00",16.4,15.6,3.4,0.0,0,1002.2,2,3,"",95
"2023-07-27 03:53:00",16.4,15.6,3.4,0.0,0,1002.1,1,2,"",95
"2023-07-27 03:54:00",16.4,15.6,3.4,0.0,0,1002.1,1,2,"",95
"2023-07-27 03:55:00",16.4,15.6,3.4,0.0,0,1002.0,1,2,"",95
"2023-07-27 03:56:00",16.4,15.6,3.4,0.0,0,1002.0,2,3,"",95
"2023-07-27 03:57:00",16.4,15.6,3.4,0.0,0,1002.0,2,3,"",95
"2023-07-27 03:58:00",16.4,15.6,3.4,0.0,0,1002.0,1,4,"",95
"2023-07-27 03:59:00",16.4,15.6,3.4,0.0,0,1001.9,1,2,"",95
"2023-07-27 04:00:00",16.4,15.6,3.4,0.0,0,1001.9,1,3,"",95
"2023-07-27 04:01:00",16.4,15.6,3.4,0.0,0,1001.9,2,5,"",95
"2023-07-27 04:02:00",16.4,15.6,3.4,0.0,0,1001.9,1,3,"",95
"2023-07-27 04:03:00",16.4,15.6,3.4,0.0,0,1001.9,1,2,"",95
"2023-07-27 04:04:00",16.4,15.6,3.4,0.0,0,1001.9,2,3,"",95
"2023-07-27 04:05:00",16.4,15.6,3.4,0.0,0,1001.9,2,4,"",95
"2023-07-27 04:06:00",16.4,15.6,3.4,0.0,0,1001.9,2,3,"",95
"2023-07-27 04:07:00",16.4,15.6,3.4,0.0,0,1001.9,1,3,"",95
"2023-07-27 04:08:00",16.4,15.6,3.4,0.0,0,1001.9,1,2,"",95
"2023-07-27 04:09:00",16.4,15.6,3.4,0.0,0,1001.9,1,2,"",95
"2023-07-27 04:10:00",16.4,15.6,3.4,0.0,0,1001.9,2,4,"",95
"2023-07-27 04:11:00",16.4,15.6,3.4,0.0,0,1001.9,2,5,"",95
"2023-07-27 04:12:00",16.4,15.6,3.4,0.0,0,1001.9,2,3,"",95
"2023-07-27 04:13:00",16.5,15.7,3.4,0.0,0,1001.9,1,2,"",95
"2023-07-27 04:14:00",16.4,15.6,3.4,0.0,0,1001.9,1,2,"",95
"2023-07-27 04:15:00",16.4,15.6,3.4,0.0,0,1001.9,1,2,"",95
"2023-07-27 04:16:00",16.4,15.6,3.4,0.0,0,1001.9,1,2,"",95
"2023-07-27 04:17:00",16.5,15.7,3.4,0.0,0,1001.9,1,2,"",95
"2023-07-27 04:18:00",16.4,15.6,3.4,0.0,0,1001.8,1,3,"",95
"2023-07-27 04:19:00",16.5,15.7,3.4,0.0,0,1001.8,1,2,"",95
"2023-07-27 04:20:00",16.5,15.7,3.4,0.0,0,1001.8,1,2,"",95
"2023-07-27 04:21:00",16.4,15.6,3.4,0.0,0,1001.8,2,3,"",95
"2023-07-27 04:22:00",16.4,15.6,3.4,0.0,0,1001.9,2,3,"",95
"2023-07-27 04:23:00",16.5,15.7,3.4,0.0,0,1001.8,2,4,"",95
"2023-07-27 04:24:00",16.5,15.7,3.4,0.0,0,1001.8,2,4,"",95
"2023-07-27 04:25:00",16.5,15.7,3.4,0.0,0,1001.8,1,3,"",95
"2023-07-27 04:26:00",16.4,15.6,3.4,0.0,0,1001.8,1,3,"",95
"2023-07-27 04:27:00",16.4,15.6,3.4,0.0,0,1001.9,1,2,"",95
"2023-07-27 04:28:00",16.4,15.6,3.4,0.0,0,1001.9,1,2,"",95
"2023-07-27 04:29:00",16.4,15.6,3.4,0.0,0,1001.9,2,3,"",95
"2023-07-27 04:30:00",16.4,15.6,3.4,0.0,0,1001.9,2,4,"",95
"2023-07-27 04:31:00",16.5,15.7,3.4,0.0,0,1001.8,1,2,"",95
"2023-07-27 04:32:00",16.4,15.6,3.4,0.0,0,1001.9,2,5,"",95
"2023-07-27 04:33:00",16.5,15.7,3.4,0.0,0,1001.9,3,8,"",95
"2023-07-27 04:34:00",16.5,15.7,3.4,0.0,0,1001.9,2,3,"",95
"2023-07-27 04:35:00",16.5,15.7,3.4,0.0,0,1001.9,1,2,"",95
"2023-07-27 04:36:00",16.6,15.8,3.4,0.0,0,1001.8,3,5,"",95
"2023-07-27 04:37:00",16.5,15.7,3.4,0.0,0,1001.7,2,4,"",95
"2023-07-27 04:38:00",16.5,15.7,3.4,0.0,0,1001.7,2,4,"",95
"2023-07-27 04:39:00",16.4,15.6,3.4,0.0,0,1001.7,2,4,"",95
"2023-07-27 04:40:00",16.5,15.7,3.4,0.0,0,1001.7,1,2,"",95
"2023-07-27 04:41:00",16.5,15.7,3.4,0.0,0,1001.7,2,3,"",95
"2023-07-27 04:42:00",16.5,15.7,3.4,0.0,0,1001.8,2,3,"",95
"2023-07-27 04:43:00",16.5,15.7,3.4,0.0,0,1001.8,2,3,"",95
"2023-07-27 04:44:00",16.6,15.8,3.4,0.0,0,1001.8,1,2,"",95
"2023-07-27 04:45:00",16.6,15.8,3.6,0.0,0,1001.8,1,3,"",95
"2023-07-27 04:46:00",16.6,15.8,3.6,0.0,0,1001.8,2,3,"",95
"2023-07-27 04:47:00",16.6,15.8,3.6,0.0,0,1001.7,2,4,"",95
"2023-07-27 04:48:00",16.6,15.8,3.6,0.0,0,1001.7,2,3,"",95
"2023-07-27 04:49:00",16.5,15.7,3.6,0.0,0,1001.6,2,2,"",95
"2023-07-27 04:50:00",16.6,15.8,3.6,0.0,0,1001.6,2,3,"",95
"2023-07-27 04:51:00",16.5,15.7,3.6,0.0,0,1001.6,2,3,"",95
"2023-07-27 04:52:00",16.6,15.8,3.6,0.0,0,1001.7,2,4,"",95
"2023-07-27 04:53:00",16.6,15.8,3.6,0.0,0,1001.6,2,4,"",95
"2023-07-27 04:54:00",16.6,15.8,3.6,0.0,0,1001.7,2,3,"",95
"2023-07-27 04:55:00",16.6,15.8,3.6,0.0,0,1001.6,1,3,"",95
"2023-07-27 04:56:00",16.6,15.8,3.6,0.0,0,1001.6,2,3,"",95
"2023-07-27 04:57:00",16.6,15.8,3.6,0.0,0,1001.6,1,2,"",95
"2023-07-27 04:58:00",16.6,15.8,3.6,0.0,0,1001.6,1,2,"",95
"2023-07-27 04:59:00",16.6,15.8,3.6,0.0,0,1001.6,2,3,"",95
"2023-07-27 05:00:00",16.6,15.8,3.6,0.0,0,1001.6,2,3,"",95
"2023-07-27 05:01:00",16.6,15.8,3.6,0.0,0,1001.5,2,3,"",95
"2023-07-27 05:02:00",16.6,15.8,3.6,0.0,0,1001.6,2,3,"",95
"2023-07-27 05:03:00",16.6,15.8,3.6,0.0,0,1001.6,2,3,"",95
"2023-07-27 05:04:00",16.6,15.8,3.6,0.0,0,1001.5,2,3,"",95
"2023-07-27 05:05:00",16.6,15.8,3.6,0.0,0,1001.6,2,3,"",95
"2023-07-27 05:06:00",16.6,15.8,3.6,0.0,0,1001.6,2,5,"",95
"2023-07-27 05:07:00",16.6,15.8,3.6,0.0,0,1001.6,1,2,"",95
"2023-07-27 05:08:00",16.6,15.8,3.6,0.0,0,1001.6,3,6,"",95
"2023-07-27 05:09:00",16.6,15.8,3.6,0.0,0,1001.6,2,5,"",95
"2023-07-27 05:10:00",16.6,15.8,3.6,0.0,0,1001.6,2,4,"",95
"2023-07-27 05:11:00",16.6,15.8,3.6,0.0,0,1001.6,2,4,"",95
"2023-07-27 05:12:00",16.6,15.8,3.6,0.0,0,1001.6,1,2,"",95
"2023-07-27 05:13:00",16.6,15.8,3.6,0.0,0,1001.6,1,2,"",95
"2023-07-27 05:14:00",16.6,15.8,3.6,0.0,0,1001.7,1,3,"",95
"2023-07-27 05:15:00",16.6,15.8,3.6,0.0,0,1001.7,1,2,"",95
"2023-07-27 05:16:00",16.6,15.8,3.6,0.0,0,1001.7,3,4,"",95
"2023-07-27 05:17:00",16.6,15.8,3.6,0.0,0,1001.7,2,3,"",95
"2023-07-27 05:18:00",16.6,15.8,3.6,0.0,0,1001.6,1,2,"",95
"2023-07-27 05:19:00",16.6,15.8,3.6,0.0,0,1001.6,1,1,"",95
"2023-07-27 05:20:00",16.6,15.8,3.6,0.0,0,1001.7,1,2,"",95
"2023-07-27 05:21:00",16.6,15.8,3.6,0.0,0,1001.7,2,4,"",95
"2023-07-27 05:22:00",16.6,15.8,3.6,0.0,0,1001.7,1,2,"",95
"2023-07-27 05:23:00",16.6,15.8,3.6,0.0,0,1001.7,1,2,"",95
"2023-07-27 05:24:00",16.6,15.8,3.6,0.0,0,1001.7,1,3,"",95
"2023-07-27 05:25:00",16.6,15.8,3.6,0.0,0,1001.7,1,2,"",95
"2023-07-27 05:26:00",16.6,15.8,3.6,0.0,0,1001.7,0,1,"",95
"2023-07-27 05:27:00",16.7,15.9,3.6,0.0,0,1001.7,1,2,"",95
"2023-07-27 05:28:00",16.7,15.9,3.6,0.0,0,1001.7,1,3,"",95
"2023-07-27 05:29:00",16.6,15.8,3.6,0.0,0,1001.7,2,4,"",95
"2023-07-27 05:30:00",16.6,15.8,3.6,0.0,0,1001.7,2,3,"",95
"2023-07-27 05:31:00",16.6,15.8,3.6,0.0,0,1001.6,2,5,"",95
"2023-07-27 05:32:00",16.7,15.9,3.6,0.0,0,1001.6,1,3,"",95
"2023-07-27 05:33:00",16.7,15.9,3.6,0.0,0,1001.6,2,4,"",95
"2023-07-27 05:34:00",16.7,15.9,3.6,0.0,0,1001.6,1,3,"",95
"2023-07-27 05:35:00",16.7,15.9,3.6,0.0,0,1001.6,0,1,"",95
"2023-07-27 05:36:00",16.7,15.9,3.6,0.0,5,1001.6,1,2,"",95
"2023-07-27 05:37:00",16.7,15.9,3.6,0.0,5,1001.6,1,1,"",95
"2023-07-27 05:38:00",16.7,15.9,3.6,0.0,5,1001.6,0,1,"",95
"2023-07-27 05:39:00",16.7,15.9,3.6,0.0,7,1001.7,2,2,"",95
"2023-07-27 05:40:00",16.7,15.9,3.6,0.0,5,1001.6,2,4,"",95
"2023-07-27 05:41:00",16.7,15.9,3.6,0.0,5,1001.7,1,2,"",95
"2023-07-27 05:42:00",16.7,15.9,3.6,0.0,5,1001.7,1,2,"",95
"2023-07-27 05:43:00",16.7,15.9,3.6,0.0,5,1001.6,2,3,"",95
"2023-07-27 05:44:00",16.7,15.9,3.6,0.0,7,1001.7,1,3,"",95
"2023-07-27 05:45:00",16.7,15.9,3.6,0.0,11,1001.6,2,4,"",95
"2023-07-27 05:46:00",16.7,15.9,3.6,0.0,12,1001.6,2,4,"",95
"2023-07-27 05:47:00",16.7,15.9,3.6,0.0,11,1001.6,2,3,"",95
"2023-07-27 05:48:00",16.7,15.9,3.6,0.0,9,1001.7,2,4,"",95
"2023-07-27 05:49:00",16.7,15.9,3.6,0.0,9,1001.6,1,2,"",95
"2023-07-27 05:50:00",16.7,15.9,3.6,0.0,11,1001.6,1,2,"",95
"2023-07-27 05:51:00",16.7,15.9,3.6,0.0,11,1001.6,1,2,"",95
"2023-07-27 05:52:00",16.7,15.9,3.6,0.0,12,1001.5,1,4,"",95
"2023-07-27 05:53:00",16.7,15.9,3.6,0.0,14,1001.5,1,3,"",95
"2023-07-27 05:54:00",16.7,15.9,3.6,0.0,12,1001.5,1,3,"",95
"2023-07-27 05:55:00",16.8,16.0,3.6,0.0,11,1001.6,2,4,"",95
"2023-07-27 05:56:00",16.8,16.0,3.6,0.0,11,1001.6,1,2,"",95
"2023-07-27 05:57:00",16.8,16.0,3.6,0.0,11,1001.5,2,4,"",95
"2023-07-27 05:58:00",16.8,16.0,3.6,0.0,11,1001.6,1,4,"",95
"2023-07-27 05:59:00",16.8,16.0,3.6,0.0,12,1001.6,1,2,"",95
"2023-07-27 06:00:00",16.8,16.0,3.6,0.0,12,1001.6,0,2,"",95
"2023-07-27 06:01:00",16.8,16.0,3.6,0.0,12,1001.6,1,3,"",95
"2023-07-27 06:02:00",16.8,16.2,3.6,0.0,12,1001.6,2,5,"",96
"2023-07-27 06:03:00",16.7,15.9,3.6,0.0,11,1001.6,2,3,"",95
"2023-07-27 06:04:00",16.8,16.0,3.6,0.0,9,1001.6,1,2,"",95
"2023-07-27 06:05:00",16.8,16.0,3.6,0.0,9,1001.7,1,2,"",95
"2023-07-27 06:06:00",16.8,16.0,3.6,0.0,11,1001.7,1,2,"",95
"2023-07-27 06:07:00",16.8,16.0,3.6,0.0,12,1001.7,2,3,"",95
"2023-07-27 06:08:00",16.8,16.2,3.6,0.0,11,1001.6,1,2,"",96
"2023-07-27 06:09:00",16.9,16.3,3.6,0.0,12,1001.7,1,2,"",96
"2023-07-27 06:10:00",16.8,16.2,3.6,0.0,14,1001.7,1,2,"",96
"2023-07-27 06:11:00",16.8,16.2,3.6,0.0,16,1001.7,2,4,"",96
"2023-07-27 06:12:00",16.8,16.0,3.6,0.0,14,1001.7,3,4,"",95
"2023-07-27 06:13:00",16.8,16.0,3.6,0.0,14,1001.7,2,3,"",95
"2023-07-27 06:14:00",16.9,16.3,3.6,0.0,12,1001.7,1,3,"",96
"2023-07-27 06:15:00",16.8,16.2,3.6,0.0,12,1001.7,2,3,"",96
"2023-07-27 06:16:00",16.8,16.2,3.6,0.0,11,1001.7,1,3,"",96
"2023-07-27 06:17:00",16.8,16.0,3.6,0.0,9,1001.7,1,3,"",95
"2023-07-27 06:18:00",16.9,16.3,3.6,0.0,11,1001.8,1,2,"",96
"2023-07-27 06:19:00",16.9,16.1,3.6,0.0,12,1001.7,1,4,"",95
"2023-07-27 06:20:00",16.8,16.0,3.6,0.0,14,1001.8,1,3,"",95
"2023-07-27 06:21:00",16.9,16.1,3.6,0.0,14,1001.8,1,3,"",95
"2023-07-27 06:22:00",16.9,16.1,3.6,0.0,11,1001.7,1,2,"",95
"2023-07-27 06:23:00",16.9,16.1,3.6,0.0,12,1001.8,2,3,"",95
"2023-07-27 06:24:00",16.9,16.3,3.6,0.0,12,1001.7,1,3,"",96
"2023-07-27 06:25:00",16.9,16.3,3.6,0.0,14,1001.7,1,2,"",96
"2023-07-27 06:26:00",16.9,16.3,3.6,0.0,18,1001.7,2,2,"",96
"2023-07-27 06:27:00",16.9,16.3,3.6,0.0,21,1001.7,2,5,"",96
"2023-07-27 06:28:00",16.9,16.3,3.6,0.0,25,1001.7,3,5,"",96
"2023-07-27 06:29:00",16.9,16.3,3.6,0.0,26,1001.8,2,3,"",96
"2023-07-27 06:30:00",16.9,16.3,3.6,0.0,25,1001.8,2,4,"",96
"2023-07-27 06:31:00",16.9,16.3,3.6,0.0,21,1001.7,3,4,"",96
"2023-07-27 06:32:00",16.9,16.3,3.6,0.0,19,1001.7,2,3,"",96
"2023-07-27 06:33:00",16.9,16.3,3.6,0.0,21,1001.8,2,5,"",96
"2023-07-27 06:34:00",16.9,16.3,3.6,0.0,23,1001.7,1,2,"",96
"2023-07-27 06:35:00",16.9,16.3,3.6,0.0,30,1001.7,3,3,"",96
"2023-07-27 06:36:00",16.9,16.3,3.6,0.0,33,1001.8,2,6,"",96
"2023-07-27 06:37:00",17.0,16.4,3.6,0.0,37,1001.7,1,3,"",96
"2023-07-27 06:38:00",16.9,16.3,3.6,0.0,37,1001.7,1,3,"",96
"2023-07-27 06:39:00",17.0,16.4,3.6,0.0,42,1001.7,1,2,"",96
"2023-07-27 06:40:00",16.9,16.3,3.6,0.0,47,1001.7,2,2,"",96
"2023-07-27 06:41:00",17.0,16.4,3.6,0.0,46,1001.7,3,5,"",96
"2023-07-27 06:42:00",17.0,16.4,3.6,0.0,51,1001.7,3,7,"",96
"2023-07-27 06:43:00",17.0,16.4,3.6,0.0,49,1001.6,1,3,"",96